Location: Melizzano
(41.1500°N, 14.5000°E)
Time: 19:58:58
(UTC+00:00)

USA 215 - Pass Details

Date: 11 May 2021
Orbit: 1100 x 1107 km, 123.0° (Epoch: 14 June)

Event Time Altitude Azimuth Distance (km) Brightness Sun altitude
Exits shadow 23:13:58 35° 101° (E) 1,690 4.1 -30.6°
Maximum altitude 23:16:43 62° 36° (NE) 1,228 3.6 -30.6°
Drops below altitude 10° 23:23:08 10° 318° (NW) 2,963 6.0 -30.4°
Sets 23:25:39 0° 315° (NW) 3,923 6.6 -30.4°
